sat.trackr.live / text

‹ back to catalog

STARLINK-1337

NORAD 45582 · 2020-025BD

PAYLOAD ACTIVE UNKNOWN

§ Identity

Operator
Country
US
Launch date
2020-04-22
Launch site
AFETR
Launch vehicle
Mass (kg)
RCS (m²)

Purposes: comms

External: N2YO · Heavens-Above · Gunter

§ Orbital elements

Epoch: 2026-05-25T02:16:54.964704Z

Period
91.60 min
Inclination
53.0475°
Eccentricity
0.0006892
Mean motion
15.72131962 rev/d
Perigee alt
348.2 km
Apogee alt
357.4 km
Semi-major
6,730.9 km
B*
4.8161e-4
RAAN
46.4429°
Arg perigee
68.8182°
Mean anomaly
291.3572°
Rev number
33,768

§ Raw data

STARLINK-13371 45582U 20025BD  26145.09508061  .00064557  00000+0  48161-3 0  99992 45582  53.0475  46.4429 0006892  68.8182 291.3572 15.72131962337680

JSON: /api/v1/satellites/45582 · /tle

For live sub-satellite position, see the globe view (requires WebGL).

§ Visibility from observer

Set your observer location to see the next 7 days of passes ≥ 10°. The values pass through the URL so the page stays shareable.

No JS? Fill the form by hand. The geolocation button needs JavaScript.